Time,TemperatureF,DewpointF,PressureIn,WindDirection,WindDirectionDegrees,WindSpeedMPH,WindSpeedGustMPH,Humidity,HourlyPrecipIn,Conditions,Clouds,dailyrainin,SoftwareType,DateUTC
2014-09-02 01:22:00,66.0,66.0,29.94,North,0,0.0,-999.0,100,-99.99,,,-99.99,,2014-09-02 06:22:00,
2014-09-02 02:42:00,70.0,70.0,29.94,East,80,6.0,-999.0,100,-99.99,,,-99.99,,2014-09-02 07:42:00,
2014-09-02 04:01:00,66.0,66.0,29.97,SSE,150,5.0,-999.0,100,-99.99,,,-99.99,,2014-09-02 09:01:00,
2014-09-02 04:43:00,66.0,66.0,29.96,SSE,150,7.0,-999.0,100,-99.99,,,-99.99,,2014-09-02 09:43:00,
2014-09-02 05:24:00,66.0,66.0,29.94,ESE,120,6.0,-999.0,100,-99.99,,,-99.99,,2014-09-02 10:24:00,
2014-09-02 06:23:00,64.0,64.0,29.99,South,180,7.0,-999.0,100,-99.99,,,-99.99,,2014-09-02 11:23:00,
2014-09-02 06:52:00,64.0,64.0,29.99,South,180,7.0,-999.0,100,-99.99,,,-99.99,,2014-09-02 11:52:00,
2014-09-02 07:33:00,64.0,64.0,30.00,SSE,150,7.0,-999.0,100,-99.99,,,-99.99,,2014-09-02 12:33:00,
2014-09-02 07:52:00,64.0,64.0,30.00,SSE,150,7.0,-999.0,100,-99.99,,,-99.99,,2014-09-02 12:52:00,
2014-09-02 08:22:00,64.0,64.0,30.04,South,170,6.0,-999.0,100,-99.99,,,-99.99,,2014-09-02 13:22:00,
2014-09-02 08:42:00,64.0,64.0,30.04,South,170,6.0,-999.0,100,-99.99,,,-99.99,,2014-09-02 13:42:00,
2014-09-02 09:23:00,64.0,64.0,30.02,SSE,150,16.0,22.0,100,-99.99,,,-99.99,,2014-09-02 14:23:00,
2014-09-02 09:32:00,64.0,64.0,30.02,SSE,150,16.0,22.0,100,-99.99,,,-99.99,,2014-09-02 14:32:00,
2014-09-02 09:42:00,64.0,64.0,30.02,SSE,150,16.0,22.0,100,-99.99,,,-99.99,,2014-09-02 14:42:00,
2014-09-02 09:52:00,64.0,64.0,30.02,SSE,150,16.0,22.0,100,-99.99,,,-99.99,,2014-09-02 14:52:00,
2014-09-02 10:22:00,66.0,66.0,30.05,SSW,200,14.0,18.0,100,-99.99,,,-99.99,,2014-09-02 15:22:00,
2014-09-02 10:34:00,66.0,66.0,30.05,SSW,200,14.0,18.0,100,-99.99,,,-99.99,,2014-09-02 15:34:00,
2014-09-02 11:24:00,66.0,66.0,30.03,NNW,330,8.0,-999.0,100,-99.99,,,-99.99,,2014-09-02 16:24:00,
2014-09-02 11:33:00,66.0,66.0,30.03,NNW,330,8.0,-999.0,100,-99.99,,,-99.99,,2014-09-02 16:33:00,
2014-09-02 12:23:00,66.0,66.0,30.08,North,0,0.0,-999.0,100,-99.99,,,-99.99,,2014-09-02 17:23:00,
2014-09-02 12:34:00,66.0,66.0,30.08,North,0,0.0,-999.0,100,-99.99,,,-99.99,,2014-09-02 17:34:00,
2014-09-02 12:43:00,66.0,66.0,30.08,North,0,0.0,-999.0,100,-99.99,,,-99.99,,2014-09-02 17:43:00,
2014-09-02 12:52:00,66.0,66.0,30.08,North,0,0.0,-999.0,100,-99.99,,,-99.99,,2014-09-02 17:52:00,
2014-09-02 13:23:00,68.0,68.0,30.07,West,280,6.0,-999.0,100,-99.99,,,-99.99,,2014-09-02 18:23:00,
2014-09-02 13:42:00,70.0,70.0,30.06,WSW,250,5.0,-999.0,100,-99.99,,,-99.99,,2014-09-02 18:42:00,